Regional Weather Roundup
Issued by NWS Sterling, VA

Home | Current Version | Previous Version | Text Only | Print | Product List | Glossary Off
Versions: 1 2 3 4 5 6 7 8 9 10 11 12 13 14 15 16 17 18 19 20 21 22 23 24 25 26

000
ASUS41 KLWX 132310
RWRLWX

REGIONAL WEATHER ROUNDUP
NATIONAL WEATHER SERVICE BALTIMORE MD/WASHINGTON DC
600 PM EST WED DEC 13 2017

Note: "FAIR" indicates few or no clouds below 12,000 feet
with no significant weather and/or obstructions to visibility.
 TC=TEMPERATURE CELSIUS

 * =Non NWS site. Station does not report precipitation (e.g. rain,
    snow, etc.), thunder, or fog.

DCZ001-MDZ009-015-VAZ040>042-051-053>054-140000-
WASHINGTON METRO

CITY           SKY/WX    TMP DP  RH WIND       PRES   REMARKS
WASHINGTON NAT MOCLDY    34   8  33 S8        29.76F WCI  27
DULLES         CLOUDY    32   8  36 S8        29.73F WCI  25
ANDREWS AFB    CLOUDY    31   7  36 S3        29.74S
FT BELVOIR     MOCLDY    33   8  34 S3        29.75F
QUANTICO       CLOUDY    36  13  38 SW10      29.76F WCI  28
COLLEGE PARK*  MOCLDY    32   6  32 SW5       29.75S
LEESBURG*      CLOUDY    34  12  40 S6        29.72F
MANASSAS*      CLOUDY    30  13  49 S5        29.74F
GAITHERSBURG*  CLOUDY    29  11  47 SE3       29.71F

$$

MDZ006>007-011-014-140000-
BALTIMORE METRO

CITY           SKY/WX    TMP DP  RH WIND       PRES   REMARKS
BWI AIRPORT    MOCLDY    29   9  43 SE5       29.75S
MD SCIENCE CTR   N/A     32   7  35 MISG      29.76R
MARTIN STATE   MOCLDY    32   9  37 W5        29.77S
ANNAPOLIS      PTCLDY    31  12  45 S6        29.76S
FORT MEADE*    PTCLDY    28  12  50 CALM      29.77S

$$

MDZ012-015-019>023-140000-
MARYLAND EASTERN SHORE

CITY           SKY/WX    TMP DP  RH WIND       PRES   REMARKS
OCEAN CITY     CLOUDY    30  14  51 SW6       29.81R
SALISBURY      CLOUDY    30  14  51 W5        29.79S
BAY BRIDGE AP* PTCLDY    32   9  37 MISG      29.77R
CAMBRIDGE*     CLEAR     30   9  40 CALM      29.79S
EASTON*        PTCLDY    32  10  40 W7        29.81S

$$

MDZ017>025-140000-
SOUTHERN MARYLAND

CITY           SKY/WX    TMP DP  RH WIND       PRES   REMARKS
PATUXENT RIVER MOCLDY    32   9  38 W7        29.78F
ST INIGOES     MOCLDY    34  13  41 SW13      29.79S WCI  25
LEONARDTOWN*   MOCLDY    32  10  40 S5        29.80R

$$

MDZ003>005-140000-
NORTH CENTRAL MARYLAND

CITY           SKY/WX    TMP DP  RH WIND       PRES   REMARKS
FREDERICK*     CLOUDY    30   7  37 CALM      29.74F
HAGERSTOWN APT CLOUDY    29  10  45 S3        29.67F
WESTMINSTER*   PTCLDY    27  10  50 CALM      29.69F

$$

MDZ501>502-140000-
WESTERN MARYLAND

CITY           SKY/WX    TMP DP  RH WIND       PRES   REMARKS
OAKLAND*       CLOUDY    18  14  86 S15       29.45F WCI   3
CUMBERLAND*    CLOUDY    28  21  74 S5        29.70S

$$

VAZ025>031-140000-
SHENANDOAH VALLEY

CITY           SKY/WX    TMP DP  RH WIND       PRES   REMARKS
WINCHESTER*    CLOUDY    32  16  51 S5        29.67F
FRONT ROYAL*   CLOUDY    32  10  40 CALM      29.67F
LURAY*         CLOUDY    34  12  40 SW5       29.67F
NEW MARKET*    CLOUDY    34   9  35 SW7       29.66S
STAUNTON*      CLOUDY    32  11  41 S9        29.68F WCI  25
WAYNESBORO*    CLOUDY    32  11  42 CALM      29.67F

$$

WVZ021-048>050-054>055-140000-
EASTERN WEST VIRGINIA PANHANDLE

CITY           SKY/WX    TMP DP  RH WIND       PRES   REMARKS
MARTINSBURG    CLOUDY    30   8  39 VRB5      29.68F
PETERSBURG*    CLOUDY    31  20  63 CALM      29.62F

$$

VAZ036>039-050-140000-
CENTRAL FOOTHILLS

CITY           SKY/WX    TMP DP  RH WIND       PRES   REMARKS
CHARLOTTESVILL CLOUDY    36   9  32 SW8       29.70F
CULPEPER*      CLOUDY    34   6  31 S5        29.73F
ORANGE*        CLOUDY    34   9  35 CALM      29.73F
GORDONSVILLE*  CLOUDY    34  10  35 S6        29.72F
WARRENTON*     CLOUDY    33   3  28 SE5       29.72F

$$

VAZ055>057-140000-
NORTH AND CENTRAL PIEDMONT

CITY           SKY/WX    TMP DP  RH WIND       PRES   REMARKS
FREDERICKSBRG* MOCLDY    34  12  40 S7        29.74F
STAFFORD*      CLOUDY    32   8  36 S5        29.78F

$$

NCZ024-NYZ072-PAZ021-071-VAZ022-071-140000-
OTHER REGIONAL OBSERVATIONS

CITY           SKY/WX    TMP DP  RH WIND       PRES   REMARKS
NEW YORK CITY  PTCLDY    29   8  41 W8        29.67R WCI  21
PHILADELPHIA   PTCLDY    28   3  34 W13       29.75R WCI  17
PITTSBURGH     CLOUDY    23  17  78 SE14      29.53F WCI  11
ROANOKE        CLOUDY    39  11  31 S12       29.69F
RICHMOND       CLOUDY    34  12  40 S6        29.78F
RALEIGH        PTCLDY    37  12  35 S8        29.81F

$$

ANZ530>537-140000-
MARINE OBSERVATIONS

STATION/POSITION TIME  TEMP    WIND        PRES
                       AIR SEA DIR/SP/G
                 (UTC) (F)     (DEG/KT/KT) (MB)
THOMAS PT LIGHT  2300   33 44  220/ 12/ 14   N/A
BALT KEY BRIDGE  2242   32                 1007.7R
COVE POINT       2242   33                 1009.2F
LEWISETTA        2242   34 41              1008.9F
SOLOMONS ISLAND  2236   35 47              1008.2F
PINEY POINT      2230          270/  9/ 12   N/A

$$





USA.gov is the U.S. government's official web portal to all federal, state and local government web resources and services.